Location: Rio Tanui
(39.9167°N, 8.5167°E)
Time: 02:45:48
(UTC+00:00)

Cosmos 2219 Rocket - Pass Details

Date: 08 February 2023
Orbit: 826 x 848 km, 71.0° (Epoch: 01 April)

Event Time Altitude Azimuth Distance (km) Brightness Sun altitude
Rises 18:22:31 0° 222° (SW) 3,351 6.1 -17.5°
Reaches altitude 10° 18:25:05 10° 230° (SW) 2,423 5.4 -18.0°
Maximum altitude 18:30:17 41° 300° (WNW) 1,195 3.4 -19.0°
Drops below altitude 10° 18:35:33 10° 9° (N) 2,446 4.5 -20.0°
Sets 18:38:10 0° 17° (NNE) 3,386 5.1 -20.5°
